sat.trackr.live / text

‹ back to catalog

STARLINK-11635 [DTC]

NORAD 63193 · 2025-048L

PAYLOAD ACTIVE UNKNOWN

§ Identity

Operator
Country
US
Launch date
2025-03-13
Launch site
AFETR
Launch vehicle
Mass (kg)
RCS (m²)

Purposes: comms

External: N2YO · Heavens-Above · Gunter

§ Orbital elements

Epoch: 2026-09-19T22:21:45.601056Z

Period
91.67 min
Inclination
42.9982°
Eccentricity
0.0001515
Mean motion
15.70866829 rev/d
Perigee alt
355.4 km
Apogee alt
357.4 km
Semi-major
6,734.6 km
B*
1.8003e-3
RAAN
228.7770°
Arg perigee
250.1465°
Mean anomaly
109.9239°
Rev number
8,907

§ Raw data

STARLINK-11635 [DTC]1 63193U 25048L   26262.93177779  .00237550  00000+0  18003-2 0  99942 63193  42.9982 228.7770 0001515 250.1465 109.9239 15.70866829 89075

JSON: /api/v1/satellites/63193 · /tle

For live sub-satellite position, see the globe view (requires WebGL).

§ Visibility from observer

Set your observer location to see the next 7 days of passes ≥ 10°. The values pass through the URL so the page stays shareable.

No JS? Fill the form by hand. The geolocation button needs JavaScript.